SCP
0 0 0 0 0 0 0 0 0 0 0 0 0 0 0 0 0 0 0 0 0 0 0 0 0 0 -0 0 0 0 0 0 0 0 0 0 0 0 0 -0 -0 -0 -0 0 0 -0 -0
0 0 0 0 0 0 0 0 0 0 0 0 0 0 0 0 0 -0 -0 -0 -0 0 0 -0 -0 -0 0 0 0 0 0 0 0 0 0 0 0 0 0 0 -0 -0 -0 0 -0 -0 0
0 0 0 0 0 0 0 0 0 0 0 0 0 0 0 0 -0 -0 -0 -0 0 0 -0 -0 -0 0 0 0 0 0 0 0 0 0 0 0 0 0 0 0 0 -0 0 0 0 0 0
0 0 0 0 0 0 0 0 0 0 0 0 0 0 0 0 -0 -0 -0 -0 0 -0 0 -0 -0 0 0 0 0 0 0 0 0 0 0 0 0 0 0 0 0 -0 0 0 0 0 0
0 0 0 0 0 0 0 0 0 0 0 0 0 0 0 0 -0 -0 -0 -0 0 0 0 -0 0 0 0 0 0 0 0 0 0 0 0 0 0 0 0 0 0 0 0 0 0 0 0
0 0 0 0 0 0 0 0 0 0 0 0 0 0 0 0 -0 -0 -0 -0 -0 0 0 -0 0 0 0 0 0 0 0 0 0 0 0 0 0 0 0 0 0 0 0 0 0 0 0
0 0 0 0 0 0 0 0 0 0 0 0 0 0 0 0 -0 -0 0 -0 0 0 0 -0 0 0 0 0 0 0 0 0 0 0 0 0 0 0 0 0 0 0 0 0 0 0 0
0 0 0 0 0 0 0 0 0 0 0 0 0 0 0 0 0 0 0 -0 -0 -0 0 0 -0 0 0 0 0 0 0 0 0 0 0 0 0 0 0 0 0 0 0 0 0 -0 0
0 0 0 0 0 0 0 0 0 0 0 0 0 0 0 0 0 0 0 -0 0 0 0 0 0 0 0 0 0 0 0 0 0 0 0 0 0 0 0 0 0 0 0 0 0 0 0
0 0 0 0 0 0 0 0 0 0 0 0 0 0 0 0 0 0 0 0 0 -0 0 0 0 0 0 0 0 0 0 0 0 0 0 0 0 0 0 0 0 0 0 0 0 0 0
0 0 0 0 0 0 0 0 0 0 0 0 0 0 -0 -0 0 0 0 0 0 0 0 0 -0 0 0 0 0 0 0 0 0 0 0 0 0 0 0 0 0 0 0 0 0 0 0
0 0 0 0 0 0 0 0 0 0 0 0 0 0 -0 -0 0 0 0 0 0 0 0 0 0 0 0 0 0 0 0 0 0 0 0 0 0 0 0 0 0 0 0 0 0 0 0
0 0 0 0 0 0 0 0 0 0 0 0 0 0 -0 0 0 0 0 0 0 0 0 0 0 0 0 0 0 0 0 0 0 0 0 0 0 0 0 0 0 0 0 0 0 0 0
0 0 0 0 0 0 0 0 0 0 0 0 0 0 -0 0 0 0 0 0 0 0 0 0 0 0 0 0 0 0 0 0 0 0 0 0 0 0 0 0 0 0 0 0 0 0 0
0 0 0 0 0 0 0 0 0 0 0 0 0 -0 0 0 -0 0 0 0 0 0 0 0 0 0 0 0 0 0 0 0 -0 0 0 0 0 0 0 0 0 0 0 0 0 0 0
0 0 0 0 0 0 0 0 0 0 0 0 -0 0 0 0 0 0 0 0 0 0 0 0 0 0 0 0 0 0 0 0 0 0 0 0 0 0 0 0 0 0 0 0 0 0 0
0 0 0 0 0 0 0 0 0 0 0 0 0 0 0 0 0 0 0 0 0 0 0 0 0 0 0 0 0 0 0 0 0 0 0 0 0 0 0 0 0 0 0 0 0 0 0
0 0 0 0 0 0 0 0 0 0 0 0 0 0 0 0 0 0 0 0 0 0 0 0 0 0 0 0 0 0 0 0 0 0 0 0 0 0 0 0 0 0 0 0 0 0 0
0 0 0 0 0 0 0 0 0 0 0 0 0 0 0 0 0 0 0 0 0 0 0 0 0 0 0 0 0 0 0 0 0 0 0 0 0 0 0 0 0 0 0 0 0 0 0
0 0 0 0 0 0 0 0 0 0 0 0 0 0 0 0 0 0 0 0 0 0 0 0 0 0 0 0 0 0 0 0 0 0 0 0 0 0 0 0 -0 0 0 0 0 0 0
0 0 0 0 0 0 0 0 0 0 0 0 0 0 0 0 0 0 0 0 0 0 0 0 0 0 0 0 0 0 0 0 0 0 0 0 0 0 0 0 0 0 0 0 0 0 0
0 0 0 0 0 0 0 0 0 0 0 0 0 0 0 0 0 0 0 0 0 0 0 0 0 0 0 0 0 0 0 0 0 0 0 0 0 0 -0 0 0 0 0 0 0 0 0
0 0 0 0 0 0 0 0 0 0 0 0 0 0 0 0 0 0 0 0 0 0 0 0 0 0 0 0 0 0 0 0 0 0 0 0 0 0 -0 0 0 0 0 0 0 0 0
0 0 0 0 0 0 0 0 0 0 0 0 0 0 0 0 0 0 0 0 0 0 0 0 0 0 0 0 0 0 0 0 0 0 0 0 0 0 0 0 -0 0 0 0 0 0 0
0 0 0 0 0 0 0 0 0 0 0 0 0 0 0 0 0 0 0 0 0 0 0 0 0 0 0 0 0 0 0 0 0 0 0 0 0 0 0 -0 0 0 0 0 0 0 0
0 0 0 0 0 0 0 0 0 0 0 0 0 0 0 0 0 0 0 0 0 0 0 0 0 0 0 0 0 0 0 0 0 0 0 0 0 0 0 0 -0 0 0 0 0 0 0
0 0 0 0 0 0 0 0 0 0 0 0 0 0 0 0 0 0 0 0 0 0 0 0 0 0 0 0 0 0 0 0 0 0 0 0 0 0 0 0 0 0 0 0 0 0 0
0 0 0 0 0 0 0 0 0 0 0 0 0 0 0 0 0 0 0 0 0 0 0 0 0 0 0 0 0 0 0 0 0 0 0 0 0 0 0 0 0 0 0 0 0 0 0
0 0 0 0 0 0 0 0 0 0 0 0 0 0 0 0 0 0 0 0 0 0 0 0 0 0 0 0 0 0 0 0 0 0 0 0 0 0 0 0 0 0 -0 0 0 0 0
Wind_Speed_500mb
34 32 29 26 24 20 18 17 17 17 20 25 30 35 40 44 46 48 49 48 43 45 44 39 30 24 20 13 2 3 5 14 20 26 30 24 17 10 8 9 10 8 9 9 17 21 50
37 35 32 27 25 22 17 15 14 16 20 26 33 38 43 47 49 49 50 44 44 41 43 32 26 22 15 6 3 1 2 8 16 26 29 19 8 1 5 6 8 13 15 21 3 23 38
41 38 34 30 27 23 19 15 14 16 21 29 35 40 45 49 50 49 49 43 45 42 41 28 26 22 20 13 10 4 1 6 9 21 23 18 1 7 3 4 5 3 6 9 11 16 11
45 41 38 34 30 26 21 18 16 18 23 29 36 41 45 49 51 48 47 42 44 43 25 23 24 21 12 6 11 8 1 3 10 14 19 12 8 15 6 2 6 5 10 7 5 6 20
48 45 41 37 33 29 25 22 19 20 22 28 34 40 44 48 51 48 43 44 42 36 21 28 22 11 10 4 5 10 11 1 8 11 13 7 11 2 2 8 8 14 5 4 5 3 9
51 48 44 40 37 34 30 26 22 23 25 29 34 38 42 46 48 46 40 44 37 20 22 25 13 9 7 6 3 8 12 17 6 2 7 8 6 6 8 8 9 7 10 4 2 3 6
54 51 48 45 41 38 33 28 24 23 25 29 36 41 44 45 45 41 36 36 37 5 34 37 31 35 46 19 12 2 19 15 10 2 4 6 9 6 9 1 3 8 9 8 8 6 12
58 55 52 49 45 41 37 31 26 24 24 28 34 41 45 46 45 23 23 23 26 27 34 62 55 52 53 51 14 6 15 13 7 6 4 11 4 12 4 5 3 1 3 6 3 8 8
62 59 55 52 48 44 39 33 28 25 24 28 32 39 45 45 40 20 12 25 34 40 11 28 11 18 22 22 19 15 18 18 6 7 5 10 8 10 4 1 5 3 7 7 11 9 7
64 61 58 54 50 46 41 35 30 26 25 28 31 38 44 47 18 39 4 26 32 24 9 14 8 3 17 16 8 27 20 15 3 14 14 8 7 3 4 8 12 3 15 9 8 6 6
66 62 59 56 52 48 43 36 31 27 26 28 30 36 40 42 43 39 27 23 22 2 8 5 0 3 15 16 10 21 35 19 14 10 11 12 5 7 2 7 11 15 12 12 7 8 7
66 64 60 57 54 49 44 38 32 29 27 29 31 36 40 44 45 23 33 20 5 10 10 12 3 2 9 6 3 10 11 12 9 10 1 12 5 5 12 9 15 7 6 12 9 8 2
66 64 63 60 56 51 45 39 33 30 29 31 34 36 42 45 50 37 24 11 9 6 10 13 6 8 2 3 3 4 10 10 11 6 4 6 7 6 8 4 4 7 12 6 7 5 11
62 63 61 60 58 54 47 40 34 31 30 34 38 41 43 42 40 23 10 7 6 7 11 10 9 10 6 7 6 3 9 5 2 10 5 3 11 5 5 9 7 7 13 10 10 8 8
72 65 63 61 57 53 48 40 34 29 31 35 39 43 43 29 27 19 14 5 15 12 5 13 13 11 13 10 6 8 7 4 6 12 12 5 8 9 4 3 8 2 5 5 11 4 5
73 70 65 62 59 55 49 41 34 29 28 31 37 43 20 19 10 33 7 10 7 7 8 6 6 5 7 10 8 9 5 6 7 4 5 14 7 3 8 4 7 6 9 1 5 5 8
78 69 66 63 57 55 49 41 34 28 24 22 29 22 11 20 25 14 7 12 9 13 5 2 3 7 5 3 3 4 5 2 6 10 6 6 6 12 2 5 7 8 8 8 8 9 9
78 73 70 65 58 54 49 42 35 28 18 16 11 5 10 37 5 0 5 9 4 5 6 5 3 8 5 4 4 5 6 1 25 3 6 5 8 5 16 5 3 7 9 9 9 8 6
55 76 66 66 59 54 50 44 36 28 17 10 5 5 22 3 2 3 8 7 5 5 6 1 5 9 4 5 7 5 6 1 26 10 5 2 6 6 17 10 8 2 5 5 6 5 10
65 80 66 65 61 55 51 45 38 29 18 11 5 2 8 17 16 4 5 7 6 7 11 11 7 4 3 3 7 8 5 3 8 8 16 5 6 9 10 9 2 10 10 6 8 4 5
68 58 70 67 62 56 53 46 40 30 21 15 9 5 3 3 4 4 6 4 3 6 9 12 4 11 9 6 3 6 4 3 5 7 6 7 6 2 11 15 8 11 14 15 9 13 9
60 57 69 71 67 58 55 51 43 34 27 23 7 5 4 4 10 5 4 4 5 7 7 8 6 1 13 11 13 12 10 5 5 8 6 6 3 4 7 7 8 10 15 16 10 3 7
55 63 73 67 75 64 60 52 44 36 32 17 18 8 1 2 5 4 4 5 9 7 14 14 4 4 10 6 1 10 10 10 6 7 4 4 5 5 9 11 16 12 9 9 6 3 1
65 66 70 82 81 75 68 58 48 41 35 25 20 14 6 3 0 2 5 9 8 10 6 7 13 7 5 12 24 20 24 17 14 12 6 8 7 4 5 10 7 11 3 7 12 7 7
64 60 69 96 83 82 66 59 50 43 36 32 21 15 9 2 3 6 10 8 15 11 8 7 17 8 3 12 8 9 10 7 7 8 3 4 7 5 5 5 13 8 10 10 4 10 3
53 56 75 95 84 80 67 60 49 42 37 33 25 22 9 9 3 6 5 8 4 8 9 10 12 16 7 7 7 6 4 5 5 1 3 8 8 7 4 3 7 5 9 34 14 9 5
39 61 81 90 84 82 68 59 50 42 37 39 29 25 11 5 5 2 3 1 5 3 1 9 16 14 14 5 6 4 2 2 1 4 3 4 5 6 4 2 14 8 32 31 2 10 10
47 62 90 78 80 84 69 58 49 40 36 40 36 27 16 5 4 6 2 3 5 8 4 11 5 10 8 8 5 3 4 2 2 3 1 5 8 3 4 4 11 33 31 5 15 15 8
85 90 77 88 65 74 70 57 46 36 38 39 37 33 20 10 8 12 18 15 11 12 4 8 5 0 3 8 3 5 3 3 5 4 2 4 9 9 14 11 7 26 27 38 35 23 24
Wind_Direction_500mb
251 252 255 261 267 272 284 299 316 332 340 343 344 343 342 342 340 338 337 337 335 330 330 327 325 328 338 324 327 34 156 188 188 176 168 174 172 149 169 178 144 158 256 229 224 235 176
250 252 253 255 260 265 271 284 301 319 330 335 337 338 339 339 337 335 335 332 328 330 329 324 328 326 323 304 172 324 213 197 193 182 180 178 178 307 194 196 161 195 245 286 145 206 160
243 246 248 250 251 253 257 266 283 305 321 329 332 336 338 339 336 331 334 329 320 327 325 316 317 318 296 270 187 206 159 185 197 191 186 186 156 350 311 199 200 239 297 15 26 105 128
245 243 242 242 244 245 247 255 273 296 314 323 329 334 338 340 338 331 332 325 318 326 322 323 318 310 265 204 195 193 177 204 198 193 193 216 281 308 214 297 36 92 54 41 317 152 150
244 242 240 239 239 238 240 248 264 285 304 317 325 331 336 340 339 333 331 324 318 314 295 318 316 307 277 187 209 234 234 135 153 158 185 217 282 307 295 96 27 4 118 57 114 287 137
241 241 239 237 235 236 237 243 260 283 301 313 322 327 333 340 340 336 332 330 320 293 295 307 290 301 249 147 10 297 227 202 125 141 162 186 150 70 31 65 195 170 109 54 121 204 184
240 238 237 235 233 234 238 247 262 280 298 313 322 327 332 340 341 343 335 351 12 328 317 286 271 279 284 281 312 295 205 213 220 75 100 31 76 193 220 306 64 115 114 141 266 248 135
238 237 235 233 232 232 235 243 257 276 294 309 319 325 331 338 340 359 357 53 31 325 305 300 294 270 263 268 283 206 184 177 152 169 127 27 196 224 138 144 131 8 142 255 218 235 144
235 234 234 232 231 232 234 242 254 268 288 305 317 323 329 337 339 5 19 20 353 335 271 305 270 246 251 217 214 221 191 178 138 167 143 158 206 108 136 67 146 218 197 189 218 175 232
235 232 230 230 229 230 232 240 252 267 284 300 314 321 328 336 345 342 2 338 338 329 25 280 287 296 184 178 231 203 188 172 105 197 156 223 278 190 112 255 148 224 207 215 226 73 222
235 232 229 227 227 229 232 239 249 262 279 294 308 315 324 331 326 331 314 333 332 332 356 267 231 148 157 174 152 197 198 189 175 177 117 249 160 127 137 225 163 221 155 186 192 165 112
233 230 228 227 225 226 230 238 248 261 275 289 300 309 315 319 320 337 320 332 338 45 259 316 74 163 133 244 187 118 160 182 169 132 352 232 230 229 209 194 188 244 134 52 52 93 70
234 231 226 223 224 225 229 236 246 260 274 285 293 303 310 314 313 315 313 332 52 150 323 316 340 357 260 172 217 111 145 157 160 112 320 309 235 248 187 203 307 91 66 334 355 10 218
234 229 228 227 221 221 226 233 243 258 272 283 294 304 308 310 293 281 281 47 154 242 267 314 353 343 100 8 36 62 103 172 210 92 111 167 340 215 167 175 169 170 146 157 205 197 256
217 227 224 222 225 224 225 231 241 255 272 285 301 309 312 308 279 213 163 104 202 210 306 329 326 49 11 9 92 78 69 348 233 175 162 142 282 306 253 325 121 136 166 200 112 20 67
221 215 218 221 220 220 224 229 238 251 269 293 312 319 321 333 246 169 101 232 240 229 329 353 30 21 35 358 46 68 22 297 337 180 274 209 310 261 282 26 327 167 169 61 11 201 247
217 219 216 216 218 220 220 225 233 245 264 297 317 321 302 306 156 170 169 225 260 268 294 14 336 328 305 17 43 67 348 266 29 331 149 124 124 284 336 177 193 19 335 57 120 150 194
218 216 217 213 212 217 218 221 229 235 254 291 308 336 341 138 111 247 177 202 249 279 295 298 197 231 247 212 38 87 114 305 341 304 54 338 143 233 233 275 336 139 229 151 128 255 235
233 213 214 214 209 213 214 218 222 228 236 269 266 250 167 235 141 265 268 271 277 286 251 330 272 208 187 257 100 90 127 184 12 40 54 77 16 17 343 6 20 158 192 170 99 73 219
234 206 211 210 207 208 211 214 218 219 223 225 237 8 209 223 244 220 209 253 260 260 258 229 245 233 214 215 7 145 127 351 12 53 42 91 96 143 197 241 259 293 290 222 142 121 256
220 205 212 204 205 203 208 211 214 213 213 206 201 229 173 228 265 234 236 302 271 306 236 207 229 217 191 139 75 108 101 97 30 33 41 82 97 292 250 253 246 249 259 282 214 226 178
232 222 204 203 199 198 205 207 211 207 208 207 197 171 201 277 302 265 165 258 253 260 229 259 207 189 178 153 182 183 136 176 209 41 60 2 173 149 276 290 298 276 282 269 245 146 137
217 206 199 205 198 196 205 206 206 206 206 199 198 196 287 334 325 122 214 275 256 323 257 253 302 118 79 31 72 90 115 121 112 133 109 71 114 52 294 338 328 311 249 286 295 335 209
213 212 206 210 197 197 202 202 202 204 210 207 192 176 165 266 166 192 313 297 285 310 284 12 72 105 68 110 106 87 75 96 89 66 106 133 112 106 259 347 267 264 195 224 225 267 311
200 198 208 196 192 200 196 198 200 201 209 208 200 187 182 182 264 303 341 338 327 337 31 65 40 17 124 134 66 46 356 40 33 33 71 110 123 101 141 182 283 284 345 324 158 274 232
195 199 190 185 191 194 193 195 197 200 207 196 194 190 179 139 246 299 307 9 10 334 1 359 22 44 109 77 73 111 175 206 325 168 122 83 82 109 79 142 261 308 335 340 287 289 327
195 190 187 185 191 186 190 190 194 199 202 187 187 191 187 178 186 39 43 58 7 36 307 330 341 10 29 63 75 116 216 298 272 270 318 37 24 103 93 303 287 324 327 326 277 254 353
192 181 180 185 191 182 184 187 191 197 194 185 189 198 201 202 226 223 295 8 50 47 96 335 17 3 35 70 110 182 126 217 19 251 237 167 123 162 136 218 263 3 343 308 308 308 65
147 170 172 186 185 186 185 188 192 199 189 184 191 199 207 231 252 272 273 273 282 303 326 24 107 196 99 88 67 121 137 96 148 294 105 255 187 184 180 216 7 16 335 318 268 288 67
Wind_Speed_850mb
34 32 29 26 24 20 18 17 17 17 20 25 30 35 40 44 46 48 49 48 43 45 44 39 30 24 20 13 2 3 5 14 20 26 30 24 17 10 8 9 10 8 9 9 17 21 50
37 35 32 27 25 22 17 15 14 16 20 26 33 38 43 47 49 49 50 44 44 41 43 32 26 22 15 6 3 1 2 8 16 26 29 19 8 1 5 6 8 13 15 21 3 23 38
41 38 34 30 27 23 19 15 14 16 21 29 35 40 45 49 50 49 49 43 45 42 41 28 26 22 20 13 10 4 1 6 9 21 23 18 1 7 3 4 5 3 6 9 11 16 11
45 41 38 34 30 26 21 18 16 18 23 29 36 41 45 49 51 48 47 42 44 43 25 23 24 21 12 6 11 8 1 3 10 14 19 12 8 15 6 2 6 5 10 7 5 6 20
48 45 41 37 33 29 25 22 19 20 22 28 34 40 44 48 51 48 43 44 42 36 21 28 22 11 10 4 5 10 11 1 8 11 13 7 11 2 2 8 8 14 5 4 5 3 9
51 48 44 40 37 34 30 26 22 23 25 29 34 38 42 46 48 46 40 44 37 20 22 25 13 9 7 6 3 8 12 17 6 2 7 8 6 6 8 8 9 7 10 4 2 3 6
54 51 48 45 41 38 33 28 24 23 25 29 36 41 44 45 45 41 36 36 37 5 34 37 31 35 46 19 12 2 19 15 10 2 4 6 9 6 9 1 3 8 9 8 8 6 12
58 55 52 49 45 41 37 31 26 24 24 28 34 41 45 46 45 23 23 23 26 27 34 62 55 52 53 51 14 6 15 13 7 6 4 11 4 12 4 5 3 1 3 6 3 8 8
62 59 55 52 48 44 39 33 28 25 24 28 32 39 45 45 40 20 12 25 34 40 11 28 11 18 22 22 19 15 18 18 6 7 5 10 8 10 4 1 5 3 7 7 11 9 7
64 61 58 54 50 46 41 35 30 26 25 28 31 38 44 47 18 39 4 26 32 24 9 14 8 3 17 16 8 27 20 15 3 14 14 8 7 3 4 8 12 3 15 9 8 6 6
66 62 59 56 52 48 43 36 31 27 26 28 30 36 40 42 43 39 27 23 22 2 8 5 0 3 15 16 10 21 35 19 14 10 11 12 5 7 2 7 11 15 12 12 7 8 7
66 64 60 57 54 49 44 38 32 29 27 29 31 36 40 44 45 23 33 20 5 10 10 12 3 2 9 6 3 10 11 12 9 10 1 12 5 5 12 9 15 7 6 12 9 8 2
66 64 63 60 56 51 45 39 33 30 29 31 34 36 42 45 50 37 24 11 9 6 10 13 6 8 2 3 3 4 10 10 11 6 4 6 7 6 8 4 4 7 12 6 7 5 11
62 63 61 60 58 54 47 40 34 31 30 34 38 41 43 42 40 23 10 7 6 7 11 10 9 10 6 7 6 3 9 5 2 10 5 3 11 5 5 9 7 7 13 10 10 8 8
72 65 63 61 57 53 48 40 34 29 31 35 39 43 43 29 27 19 14 5 15 12 5 13 13 11 13 10 6 8 7 4 6 12 12 5 8 9 4 3 8 2 5 5 11 4 5
73 70 65 62 59 55 49 41 34 29 28 31 37 43 20 19 10 33 7 10 7 7 8 6 6 5 7 10 8 9 5 6 7 4 5 14 7 3 8 4 7 6 9 1 5 5 8
78 69 66 63 57 55 49 41 34 28 24 22 29 22 11 20 25 14 7 12 9 13 5 2 3 7 5 3 3 4 5 2 6 10 6 6 6 12 2 5 7 8 8 8 8 9 9
78 73 70 65 58 54 49 42 35 28 18 16 11 5 10 37 5 0 5 9 4 5 6 5 3 8 5 4 4 5 6 1 25 3 6 5 8 5 16 5 3 7 9 9 9 8 6
55 76 66 66 59 54 50 44 36 28 17 10 5 5 22 3 2 3 8 7 5 5 6 1 5 9 4 5 7 5 6 1 26 10 5 2 6 6 17 10 8 2 5 5 6 5 10
65 80 66 65 61 55 51 45 38 29 18 11 5 2 8 17 16 4 5 7 6 7 11 11 7 4 3 3 7 8 5 3 8 8 16 5 6 9 10 9 2 10 10 6 8 4 5
68 58 70 67 62 56 53 46 40 30 21 15 9 5 3 3 4 4 6 4 3 6 9 12 4 11 9 6 3 6 4 3 5 7 6 7 6 2 11 15 8 11 14 15 9 13 9
60 57 69 71 67 58 55 51 43 34 27 23 7 5 4 4 10 5 4 4 5 7 7 8 6 1 13 11 13 12 10 5 5 8 6 6 3 4 7 7 8 10 15 16 10 3 7
55 63 73 67 75 64 60 52 44 36 32 17 18 8 1 2 5 4 4 5 9 7 14 14 4 4 10 6 1 10 10 10 6 7 4 4 5 5 9 11 16 12 9 9 6 3 1
65 66 70 82 81 75 68 58 48 41 35 25 20 14 6 3 0 2 5 9 8 10 6 7 13 7 5 12 24 20 24 17 14 12 6 8 7 4 5 10 7 11 3 7 12 7 7
64 60 69 96 83 82 66 59 50 43 36 32 21 15 9 2 3 6 10 8 15 11 8 7 17 8 3 12 8 9 10 7 7 8 3 4 7 5 5 5 13 8 10 10 4 10 3
53 56 75 95 84 80 67 60 49 42 37 33 25 22 9 9 3 6 5 8 4 8 9 10 12 16 7 7 7 6 4 5 5 1 3 8 8 7 4 3 7 5 9 34 14 9 5
39 61 81 90 84 82 68 59 50 42 37 39 29 25 11 5 5 2 3 1 5 3 1 9 16 14 14 5 6 4 2 2 1 4 3 4 5 6 4 2 14 8 32 31 2 10 10
47 62 90 78 80 84 69 58 49 40 36 40 36 27 16 5 4 6 2 3 5 8 4 11 5 10 8 8 5 3 4 2 2 3 1 5 8 3 4 4 11 33 31 5 15 15 8
85 90 77 88 65 74 70 57 46 36 38 39 37 33 20 10 8 12 18 15 11 12 4 8 5 0 3 8 3 5 3 3 5 4 2 4 9 9 14 11 7 26 27 38 35 23 24
Wind_Direction_850mb
251 252 255 261 267 272 284 299 316 332 340 343 344 343 342 342 340 338 337 337 335 330 330 327 325 328 338 324 327 34 156 188 188 176 168 174 172 149 169 178 144 158 256 229 224 235 176
250 252 253 255 260 265 271 284 301 319 330 335 337 338 339 339 337 335 335 332 328 330 329 324 328 326 323 304 172 324 213 197 193 182 180 178 178 307 194 196 161 195 245 286 145 206 160
243 246 248 250 251 253 257 266 283 305 321 329 332 336 338 339 336 331 334 329 320 327 325 316 317 318 296 270 187 206 159 185 197 191 186 186 156 350 311 199 200 239 297 15 26 105 128
245 243 242 242 244 245 247 255 273 296 314 323 329 334 338 340 338 331 332 325 318 326 322 323 318 310 265 204 195 193 177 204 198 193 193 216 281 308 214 297 36 92 54 41 317 152 150
244 242 240 239 239 238 240 248 264 285 304 317 325 331 336 340 339 333 331 324 318 314 295 318 316 307 277 187 209 234 234 135 153 158 185 217 282 307 295 96 27 4 118 57 114 287 137
241 241 239 237 235 236 237 243 260 283 301 313 322 327 333 340 340 336 332 330 320 293 295 307 290 301 249 147 10 297 227 202 125 141 162 186 150 70 31 65 195 170 109 54 121 204 184
240 238 237 235 233 234 238 247 262 280 298 313 322 327 332 340 341 343 335 351 12 328 317 286 271 279 284 281 312 295 205 213 220 75 100 31 76 193 220 306 64 115 114 141 266 248 135
238 237 235 233 232 232 235 243 257 276 294 309 319 325 331 338 340 359 357 53 31 325 305 300 294 270 263 268 283 206 184 177 152 169 127 27 196 224 138 144 131 8 142 255 218 235 144
235 234 234 232 231 232 234 242 254 268 288 305 317 323 329 337 339 5 19 20 353 335 271 305 270 246 251 217 214 221 191 178 138 167 143 158 206 108 136 67 146 218 197 189 218 175 232
235 232 230 230 229 230 232 240 252 267 284 300 314 321 328 336 345 342 2 338 338 329 25 280 287 296 184 178 231 203 188 172 105 197 156 223 278 190 112 255 148 224 207 215 226 73 222
235 232 229 227 227 229 232 239 249 262 279 294 308 315 324 331 326 331 314 333 332 332 356 267 231 148 157 174 152 197 198 189 175 177 117 249 160 127 137 225 163 221 155 186 192 165 112
233 230 228 227 225 226 230 238 248 261 275 289 300 309 315 319 320 337 320 332 338 45 259 316 74 163 133 244 187 118 160 182 169 132 352 232 230 229 209 194 188 244 134 52 52 93 70
234 231 226 223 224 225 229 236 246 260 274 285 293 303 310 314 313 315 313 332 52 150 323 316 340 357 260 172 217 111 145 157 160 112 320 309 235 248 187 203 307 91 66 334 355 10 218
234 229 228 227 221 221 226 233 243 258 272 283 294 304 308 310 293 281 281 47 154 242 267 314 353 343 100 8 36 62 103 172 210 92 111 167 340 215 167 175 169 170 146 157 205 197 256
217 227 224 222 225 224 225 231 241 255 272 285 301 309 312 308 279 213 163 104 202 210 306 329 326 49 11 9 92 78 69 348 233 175 162 142 282 306 253 325 121 136 166 200 112 20 67
221 215 218 221 220 220 224 229 238 251 269 293 312 319 321 333 246 169 101 232 240 229 329 353 30 21 35 358 46 68 22 297 337 180 274 209 310 261 282 26 327 167 169 61 11 201 247
217 219 216 216 218 220 220 225 233 245 264 297 317 321 302 306 156 170 169 225 260 268 294 14 336 328 305 17 43 67 348 266 29 331 149 124 124 284 336 177 193 19 335 57 120 150 194
218 216 217 213 212 217 218 221 229 235 254 291 308 336 341 138 111 247 177 202 249 279 295 298 197 231 247 212 38 87 114 305 341 304 54 338 143 233 233 275 336 139 229 151 128 255 235
233 213 214 214 209 213 214 218 222 228 236 269 266 250 167 235 141 265 268 271 277 286 251 330 272 208 187 257 100 90 127 184 12 40 54 77 16 17 343 6 20 158 192 170 99 73 219
234 206 211 210 207 208 211 214 218 219 223 225 237 8 209 223 244 220 209 253 260 260 258 229 245 233 214 215 7 145 127 351 12 53 42 91 96 143 197 241 259 293 290 222 142 121 256
220 205 212 204 205 203 208 211 214 213 213 206 201 229 173 228 265 234 236 302 271 306 236 207 229 217 191 139 75 108 101 97 30 33 41 82 97 292 250 253 246 249 259 282 214 226 178
232 222 204 203 199 198 205 207 211 207 208 207 197 171 201 277 302 265 165 258 253 260 229 259 207 189 178 153 182 183 136 176 209 41 60 2 173 149 276 290 298 276 282 269 245 146 137
217 206 199 205 198 196 205 206 206 206 206 199 198 196 287 334 325 122 214 275 256 323 257 253 302 118 79 31 72 90 115 121 112 133 109 71 114 52 294 338 328 311 249 286 295 335 209
213 212 206 210 197 197 202 202 202 204 210 207 192 176 165 266 166 192 313 297 285 310 284 12 72 105 68 110 106 87 75 96 89 66 106 133 112 106 259 347 267 264 195 224 225 267 311
200 198 208 196 192 200 196 198 200 201 209 208 200 187 182 182 264 303 341 338 327 337 31 65 40 17 124 134 66 46 356 40 33 33 71 110 123 101 141 182 283 284 345 324 158 274 232
195 199 190 185 191 194 193 195 197 200 207 196 194 190 179 139 246 299 307 9 10 334 1 359 22 44 109 77 73 111 175 206 325 168 122 83 82 109 79 142 261 308 335 340 287 289 327
195 190 187 185 191 186 190 190 194 199 202 187 187 191 187 178 186 39 43 58 7 36 307 330 341 10 29 63 75 116 216 298 272 270 318 37 24 103 93 303 287 324 327 326 277 254 353
192 181 180 185 191 182 184 187 191 197 194 185 189 198 201 202 226 223 295 8 50 47 96 335 17 3 35 70 110 182 126 217 19 251 237 167 123 162 136 218 263 3 343 308 308 308 65
147 170 172 186 185 186 185 188 192 199 189 184 191 199 207 231 252 272 273 273 282 303 326 24 107 196 99 88 67 121 137 96 148 294 105 255 187 184 180 216 7 16 335 318 268 288 67